Wind_Speed
21 21 21 22 22 22 21 22 22 22 22 22 22 23 24 25 25 26 24 22 22 22 23 23 24 24 24 24 25 25 25 25 25 25 25 24 24 23 22 21 20 19 19 17 16 15 15 14 13
23 23 23 24 24 24 23 23 24 24 25 25 25 25 26 27 27 27 26 25 25 24 25 25 25 26 26 26 26 27 27 27 27 27 27 26 26 26 25 24 23 22 21 20 19 18 17 16 15
25 25 26 26 25 25 25 25 26 26 27 28 28 27 28 29 29 29 28 28 27 27 27 27 28 28 28 28 28 28 29 29 29 29 29 28 28 28 27 26 25 24 23 22 21 20 19 18 17
26 27 28 28 27 27 28 28 29 29 30 30 31 31 30 31 32 32 32 31 30 29 29 30 30 30 31 31 31 30 30 31 31 31 31 30 30 30 29 29 28 27 25 24 23 22 21 20 19
28 29 29 30 29 30 31 32 32 32 32 33 33 33 33 34 34 35 34 34 33 32 32 32 32 33 33 33 33 33 33 33 33 33 33 32 32 32 31 31 30 29 28 26 25 24 23 22 21
29 30 31 31 31 32 33 34 34 34 35 36 36 36 36 37 37 37 37 36 36 35 35 35 35 35 36 36 36 36 36 35 35 35 35 34 34 34 33 33 32 31 30 29 27 26 25 24 23
30 31 32 32 33 34 35 35 36 36 37 38 39 39 39 39 40 40 40 39 39 38 38 38 38 38 38 38 39 39 39 39 38 37 37 37 36 36 36 35 34 33 31 30 29 28 27 25 25
31 32 33 34 35 36 37 38 38 39 39 39 41 41 41 41 42 42 42 42 41 41 41 40 40 40 40 41 41 41 41 41 40 40 39 38 38 38 38 37 36 35 33 32 31 29 28 27 26
32 34 35 36 37 38 38 39 39 40 41 41 43 44 44 44 44 45 45 45 45 45 45 44 44 43 42 43 44 43 43 44 43 43 42 41 40 40 40 39 38 37 35 34 33 31 30 29 28
34 35 36 37 39 40 40 41 40 41 42 43 44 46 46 47 47 47 47 47 47 47 48 48 47 46 45 45 46 46 45 45 46 46 45 44 43 42 41 41 40 39 37 36 34 33 32 30 29
35 36 37 38 40 40 40 41 41 42 42 44 45 46 47 48 49 49 49 50 50 49 50 51 51 50 49 48 48 48 47 47 47 48 47 47 45 44 43 42 41 40 39 37 36 35 33 32 31
35 36 37 38 40 40 40 41 41 42 43 44 46 47 49 49 50 50 51 51 52 52 53 54 53 53 52 51 51 51 50 49 49 50 49 49 48 46 45 43 42 41 40 39 38 36 35 34 32
35 35 37 38 39 40 40 41 41 41 43 45 46 48 48 49 50 52 53 53 53 54 55 56 56 55 55 54 54 53 53 52 51 52 51 51 50 49 48 46 44 43 42 40 39 38 37 36 34
35 35 36 37 38 39 40 40 41 42 43 44 46 47 48 49 50 51 53 55 54 54 55 56 56 57 57 57 56 55 54 54 54 53 54 53 52 50 49 48 46 45 43 42 41 39 38 37 36
36 36 36 36 37 38 40 39 41 42 44 45 45 46 47 48 49 51 52 53 54 53 53 56 57 57 58 58 57 57 56 56 56 55 56 55 55 53 50 49 49 47 45 44 42 41 39 38 37
35 36 36 36 37 38 40 39 40 42 44 44 44 45 46 47 48 50 51 52 53 53 53 55 57 57 58 59 59 58 57 58 58 58 57 57 56 55 52 51 50 49 48 46 44 42 41 39 38
35 35 36 36 37 39 41 41 39 42 45 45 45 45 46 46 46 48 49 50 51 52 52 54 56 57 58 60 60 59 58 59 59 59 59 58 57 56 55 53 50 50 50 47 46 44 42 41 39
35 36 36 37 38 40 42 42 40 41 44 45 45 44 45 45 45 47 48 49 49 50 52 52 53 55 56 58 59 59 59 59 60 60 60 59 59 57 56 54 51 51 50 49 48 46 44 42 41
37 36 37 37 39 41 42 41 40 41 43 44 44 44 44 44 45 47 47 47 48 49 51 51 52 54 55 56 57 59 59 59 60 61 62 61 60 59 58 56 54 53 51 50 50 48 46 44 43
37 37 38 38 39 42 42 41 39 40 42 43 44 44 44 44 44 45 46 46 46 47 48 50 50 51 53 54 55 57 58 58 59 61 62 62 61 60 59 57 56 54 51 51 51 50 48 46 44
36 38 39 40 41 41 43 41 38 39 40 43 44 44 45 44 43 44 44 44 43 44 45 46 48 49 51 53 54 56 58 59 59 61 62 63 63 61 60 58 56 55 52 51 52 51 49 48 45
37 39 41 41 42 42 44 45 39 40 41 42 43 44 44 42 41 41 41 41 41 42 43 44 46 47 49 51 53 54 56 57 58 60 62 62 63 62 60 58 57 55 53 52 52 51 50 49 47
39 40 42 43 43 44 43 46 42 41 41 41 41 41 41 40 40 39 38 39 40 40 40 42 43 44 46 48 50 51 53 54 55 58 59 60 61 63 61 59 57 56 54 53 53 53 51 49 47
40 41 43 44 44 45 44 45 43 41 41 40 40 39 39 38 38 37 36 37 38 38 39 40 42 44 44 47 48 51 52 53 55 56 57 57 59 61 60 58 56 55 54 54 54 53 51 48 47
40 41 44 46 46 45 44 45 43 41 41 40 38 37 37 37 37 36 36 36 35 36 37 38 39 41 43 46 47 48 50 52 53 55 56 56 57 58 59 58 56 54 54 54 54 53 51 48 46
42 42 43 46 47 46 44 44 42 41 40 38 37 36 35 36 36 35 35 34 34 35 36 37 39 40 41 43 46 46 48 50 51 53 53 55 57 58 56 57 55 54 54 54 54 53 51 49 46
42 42 43 46 47 47 45 43 42 40 39 38 36 35 34 35 35 35 34 33 34 34 34 35 37 39 40 42 45 45 47 49 50 52 52 53 56 57 53 55 55 53 51 52 53 51 50 49 47
42 43 44 44 47 48 47 44 42 40 39 37 36 36 36 35 35 34 33 31 32 33 34 34 36 38 39 41 43 44 45 47 49 49 50 52 55 55 55 54 52 50 50 50 49 49 49 47 45
43 43 43 45 46 48 49 45 42 40 39 37 36 36 36 35 35 34 32 32 32 32 33 34 34 36 37 39 40 41 43 46 47 47 47 51 54 54 53 53 50 49 49 48 48 48 48 47 44
43 43 43 44 46 47 49 46 40 40 39 38 38 37 35 35 34 34 33 32 31 31 31 32 33 35 37 38 39 40 42 44 47 48 47 50 52 53 53 48 47 48 48 47 46 45 46 46 44
Wind_Direction
270 270 269 267 267 267 267 267 267 267 267 266 265 262 260 259 258 259 259 256 253 252 251 250 248 247 248 248 247 247 247 247 247 246 246 246 247 247 248 249 251 252 254 256 259 262 264 265 269
271 270 269 268 268 269 269 270 270 269 267 265 265 265 263 261 261 260 258 256 254 254 253 252 251 249 248 249 249 248 248 248 248 247 246 246 247 248 249 250 251 252 253 255 257 260 263 265 269
272 271 270 269 270 271 272 271 270 269 267 267 266 266 265 264 263 262 260 258 256 255 254 254 253 251 249 249 249 249 248 248 248 248 247 246 247 248 249 250 251 251 252 254 256 258 261 263 267
274 272 271 271 272 273 273 272 269 268 268 267 266 266 267 267 265 264 263 260 258 256 255 255 254 253 251 250 249 250 249 249 248 248 247 247 247 248 249 250 251 251 252 253 254 256 259 261 264
274 273 273 273 273 273 273 272 271 270 269 268 267 266 266 266 265 265 264 262 260 258 256 255 254 254 252 250 249 249 250 250 249 248 248 248 248 248 249 249 250 251 251 252 254 255 257 259 262
276 275 274 274 274 274 273 273 273 271 270 269 268 266 266 266 265 264 264 263 261 259 258 255 254 254 253 251 250 250 250 250 249 248 248 248 248 248 249 249 249 250 251 251 253 255 257 257 260
277 276 276 276 274 274 274 274 273 272 271 269 268 267 266 266 265 264 264 263 261 259 258 257 255 254 253 253 251 250 249 249 249 249 248 247 248 248 249 249 249 249 250 251 252 254 256 257 259
278 277 277 276 275 275 274 274 273 271 271 270 269 268 267 266 265 265 264 262 261 260 258 257 256 255 254 253 252 250 249 249 249 249 248 248 248 248 249 249 248 248 249 250 251 252 255 256 258
279 278 278 277 276 276 275 273 273 272 271 270 269 269 267 266 265 264 263 262 261 260 259 257 256 255 254 253 252 251 249 248 247 247 247 247 248 248 248 248 248 247 248 249 250 251 253 255 257
280 280 279 279 278 277 276 275 273 272 272 271 269 269 268 267 265 264 262 261 261 260 259 258 257 255 253 252 252 251 249 248 247 246 246 246 246 247 248 248 248 247 247 248 250 251 252 254 256
282 282 281 281 280 279 278 276 275 274 273 271 269 269 269 269 267 265 262 261 260 259 258 258 256 255 253 251 250 250 248 247 247 246 245 245 244 246 246 246 247 247 248 249 250 251 252 253 254
286 285 285 284 283 282 280 279 277 276 275 273 271 269 267 268 268 266 263 261 260 259 257 256 255 254 252 250 249 248 247 245 244 245 243 243 243 244 245 245 245 246 247 248 249 250 251 252 253
289 288 287 286 285 284 283 282 281 280 279 276 273 271 270 268 268 266 264 262 261 259 256 254 253 253 251 250 248 247 246 244 243 243 241 241 241 242 243 244 244 245 245 246 247 248 250 251 252
291 289 289 288 287 285 284 283 284 282 280 278 276 273 271 269 269 268 265 264 262 259 255 252 251 251 250 249 247 246 245 244 242 241 240 239 239 240 242 242 243 244 244 244 245 247 248 249 250
292 290 290 288 288 287 286 286 286 285 282 279 278 275 274 272 269 268 267 264 262 259 256 252 251 250 249 248 246 245 244 242 241 239 238 238 238 239 240 241 242 242 242 242 244 245 247 248 249
295 292 291 289 289 288 289 290 288 287 285 282 279 277 276 274 271 270 268 266 263 260 257 253 250 249 248 246 245 243 242 241 239 238 237 236 237 237 238 239 240 240 240 240 242 243 245 246 247
297 295 294 292 292 290 292 294 291 290 287 285 281 278 277 277 273 271 269 267 264 261 257 253 249 248 246 245 244 241 240 239 237 236 236 234 235 236 237 238 239 239 238 239 241 242 243 244 245
299 298 298 298 297 293 295 296 295 293 290 286 283 280 279 279 275 273 271 268 265 262 258 253 249 246 245 244 242 240 239 237 236 235 233 232 233 233 234 235 237 238 238 238 240 241 242 243 244
301 301 302 302 302 299 298 299 299 296 291 288 284 283 282 281 278 275 273 268 264 260 258 254 250 246 244 242 241 239 237 236 235 233 232 232 231 231 232 233 234 236 237 239 240 241 242 243 243
303 303 304 304 304 303 301 300 300 297 294 290 287 285 284 283 280 277 273 268 264 261 258 254 250 245 243 241 240 238 237 236 234 233 231 231 230 230 231 232 232 233 235 237 238 239 240 242 243
305 306 306 306 306 306 304 301 300 298 296 293 290 288 286 285 282 278 274 270 265 261 258 254 249 244 242 241 239 238 236 234 233 231 230 230 230 229 230 230 230 231 234 236 237 238 239 241 243
306 306 307 308 308 309 308 306 304 301 298 295 293 290 287 286 283 279 276 273 266 262 257 253 248 244 241 241 238 237 235 233 233 231 230 230 230 229 229 229 230 231 232 234 236 238 238 240 242
307 307 307 307 308 308 310 307 309 307 303 299 296 294 289 286 284 281 278 274 268 263 256 252 247 242 241 239 238 236 234 232 231 230 228 229 230 229 228 228 228 230 231 233 235 236 238 239 240
308 307 306 306 307 309 311 309 311 310 306 302 298 296 293 287 285 282 280 275 269 263 256 253 248 243 241 240 239 236 233 232 231 229 227 227 228 227 227 227 227 228 231 233 234 236 236 237 238
308 308 308 307 308 310 311 309 312 310 307 305 301 297 294 289 286 284 282 276 268 263 259 254 248 244 242 240 238 236 234 232 232 229 227 227 226 226 227 226 225 227 229 231 232 234 235 236 237
309 308 308 308 308 309 309 308 311 310 307 306 302 298 294 290 285 285 285 276 268 264 260 254 249 246 243 240 237 236 234 231 231 229 228 227 225 225 226 225 225 228 229 229 231 232 232 234 235
309 308 307 306 305 306 308 309 309 309 306 305 303 299 294 290 288 287 284 276 269 264 259 255 250 247 244 240 237 235 233 229 229 229 228 226 224 223 224 223 224 226 227 227 229 230 231 233 234
309 308 307 306 306 306 308 310 312 311 307 304 301 297 294 291 289 287 283 277 270 265 260 255 251 248 245 241 238 235 232 229 226 226 226 225 222 221 222 220 222 224 226 225 226 228 231 233 235
307 307 306 304 303 304 306 310 313 310 307 304 300 296 293 290 288 285 281 276 269 263 259 254 251 247 243 240 237 233 230 227 224 223 224 223 221 221 221 221 222 222 223 223 225 229 230 231 234
305 305 305 303 303 302 303 308 311 308 305 302 299 296 294 290 286 282 279 275 268 262 259 255 249 244 241 238 235 232 230 227 223 222 222 222 221 221 219 218 220 221 222 223 225 226 229 230 233
Height
5828 5828 5829 5830 5830 5830 5830 5831 5832 5833 5833 5834 5834 5834 5835 5836 5837 5840 5840 5840 5841 5842 5843 5844 5845 5847 5848 5849 5851 5852 5853 5855 5856 5857 5859 5860 5861 5863 5864 5865 5866 5866 5867 5867 5868 5868 5868 5868 5868
5823 5824 5824 5824 5824 5824 5826 5827 5827 5828 5828 5828 5828 5828 5829 5829 5830 5832 5833 5835 5836 5837 5838 5839 5841 5842 5843 5845 5846 5848 5849 5851 5852 5853 5855 5856 5858 5859 5860 5861 5862 5863 5864 5865 5865 5866 5866 5866 5866
5818 5818 5819 5819 5819 5819 5820 5821 5821 5821 5821 5822 5822 5822 5823 5823 5824 5825 5827 5829 5830 5832 5833 5834 5835 5837 5838 5840 5841 5843 5844 5846 5847 5849 5851 5852 5854 5855 5856 5857 5859 5860 5861 5862 5862 5863 5863 5864 5864
5812 5812 5813 5813 5813 5814 5814 5814 5814 5814 5815 5815 5815 5816 5816 5817 5817 5818 5819 5821 5824 5826 5827 5828 5829 5831 5832 5834 5836 5837 5839 5840 5842 5844 5846 5847 5849 5850 5852 5853 5855 5856 5857 5858 5859 5860 5860 5861 5861
5806 5806 5806 5806 5806 5807 5806 5806 5806 5806 5807 5807 5808 5809 5809 5809 5809 5810 5812 5813 5816 5818 5820 5821 5823 5824 5826 5828 5829 5831 5833 5835 5836 5838 5840 5842 5844 5846 5847 5848 5850 5851 5853 5854 5855 5856 5857 5857 5858
5799 5798 5799 5799 5799 5799 5798 5798 5798 5799 5799 5799 5799 5800 5801 5801 5802 5803 5804 5805 5807 5809 5812 5813 5815 5817 5818 5821 5822 5825 5826 5828 5830 5832 5834 5836 5838 5840 5842 5843 5845 5847 5848 5850 5851 5852 5853 5854 5854
5792 5791 5791 5791 5791 5790 5790 5789 5789 5789 5789 5790 5790 5791 5792 5793 5793 5794 5795 5797 5798 5800 5802 5805 5807 5809 5810 5812 5815 5817 5819 5821 5824 5826 5828 5830 5832 5834 5836 5838 5840 5841 5843 5845 5846 5848 5849 5850 5850
5783 5783 5782 5782 5782 5782 5781 5780 5779 5779 5780 5780 5779 5780 5782 5783 5783 5784 5785 5786 5788 5790 5793 5795 5797 5800 5801 5803 5805 5808 5811 5813 5816 5818 5821 5823 5825 5827 5829 5831 5834 5836 5837 5839 5841 5843 5844 5845 5846
5775 5775 5773 5773 5772 5772 5770 5770 5769 5769 5769 5769 5768 5769 5770 5771 5772 5773 5774 5776 5778 5780 5782 5784 5786 5789 5791 5793 5795 5798 5801 5804 5807 5810 5812 5815 5817 5820 5822 5825 5827 5830 5832 5834 5835 5837 5839 5840 5841
5766 5765 5764 5763 5761 5760 5759 5758 5758 5758 5758 5757 5756 5756 5757 5758 5760 5761 5763 5764 5766 5768 5770 5772 5774 5777 5780 5783 5785 5788 5791 5794 5797 5800 5804 5806 5809 5812 5815 5817 5820 5823 5825 5827 5829 5831 5833 5835 5836
5756 5755 5754 5752 5750 5748 5748 5747 5746 5745 5746 5745 5744 5744 5744 5745 5746 5748 5749 5751 5752 5754 5756 5758 5761 5764 5767 5771 5773 5776 5780 5783 5787 5790 5794 5797 5800 5803 5806 5809 5812 5815 5818 5821 5823 5825 5827 5829 5830
5747 5745 5743 5741 5738 5736 5736 5735 5734 5733 5733 5731 5731 5730 5731 5731 5732 5733 5735 5736 5738 5740 5742 5744 5746 5750 5753 5757 5760 5764 5768 5772 5776 5779 5783 5787 5790 5794 5797 5801 5804 5807 5811 5814 5816 5818 5821 5822 5824
5737 5735 5732 5730 5727 5725 5724 5722 5721 5721 5718 5717 5716 5716 5716 5717 5717 5718 5719 5720 5722 5724 5727 5730 5732 5735 5738 5742 5746 5751 5755 5759 5764 5768 5772 5776 5780 5784 5788 5792 5795 5799 5802 5806 5809 5811 5813 5816 5818
5728 5725 5722 5719 5716 5715 5713 5712 5709 5708 5705 5704 5702 5702 5702 5702 5702 5702 5703 5704 5706 5708 5711 5714 5716 5720 5723 5727 5732 5736 5741 5746 5750 5755 5760 5764 5769 5774 5778 5782 5785 5790 5794 5797 5801 5803 5806 5809 5811
5718 5716 5713 5710 5706 5704 5703 5703 5699 5696 5693 5691 5689 5688 5688 5687 5687 5687 5687 5688 5690 5692 5694 5697 5701 5705 5708 5712 5717 5721 5726 5732 5737 5742 5747 5752 5757 5763 5768 5772 5776 5780 5784 5788 5792 5795 5798 5801 5804
5709 5706 5703 5701 5697 5694 5693 5692 5689 5683 5680 5678 5676 5674 5673 5673 5672 5671 5671 5672 5673 5675 5677 5680 5684 5688 5692 5696 5701 5705 5711 5717 5723 5728 5734 5739 5745 5751 5756 5761 5766 5770 5774 5779 5783 5786 5790 5793 5796
5700 5696 5693 5691 5687 5683 5680 5680 5678 5671 5666 5665 5663 5661 5660 5659 5658 5657 5656 5656 5657 5658 5660 5663 5665 5670 5675 5679 5684 5689 5695 5701 5708 5714 5720 5726 5732 5738 5744 5750 5755 5759 5764 5769 5773 5778 5781 5785 5788
5690 5687 5684 5680 5677 5673 5670 5668 5666 5660 5655 5652 5650 5648 5646 5645 5645 5643 5641 5641 5641 5642 5643 5646 5648 5652 5657 5662 5667 5673 5678 5685 5692 5699 5706 5713 5719 5726 5732 5739 5744 5748 5753 5759 5764 5768 5773 5776 5780
5681 5678 5675 5672 5666 5662 5660 5657 5654 5649 5644 5640 5637 5635 5633 5632 5630 5628 5626 5626 5626 5627 5627 5630 5632 5636 5640 5645 5651 5657 5663 5670 5677 5684 5692 5698 5706 5713 5720 5726 5732 5738 5743 5749 5755 5759 5763 5767 5771
5672 5668 5665 5663 5657 5652 5649 5647 5644 5638 5632 5628 5625 5622 5620 5619 5616 5614 5613 5611 5611 5611 5612 5614 5617 5620 5624 5629 5635 5641 5647 5654 5662 5669 5676 5684 5692 5699 5707 5714 5721 5727 5732 5738 5744 5749 5753 5758 5762
5664 5659 5655 5651 5647 5643 5637 5637 5636 5629 5622 5617 5613 5609 5606 5604 5603 5601 5600 5598 5597 5597 5598 5599 5602 5606 5610 5614 5620 5626 5631 5638 5645 5653 5661 5670 5678 5685 5693 5701 5709 5715 5721 5727 5733 5739 5744 5749 5753
5656 5651 5646 5641 5636 5633 5628 5621 5626 5618 5611 5605 5601 5598 5595 5593 5591 5589 5587 5585 5584 5584 5584 5586 5589 5592 5596 5600 5606 5611 5617 5624 5631 5640 5648 5656 5664 5673 5680 5688 5696 5703 5711 5716 5722 5729 5734 5739 5744
5646 5641 5637 5632 5626 5623 5619 5610 5613 5607 5601 5595 5590 5586 5583 5581 5579 5577 5575 5573 5572 5571 5572 5574 5576 5579 5583 5588 5593 5598 5603 5611 5618 5625 5633 5642 5650 5660 5668 5676 5684 5692 5699 5706 5712 5718 5724 5729 5735
5637 5632 5627 5622 5618 5614 5610 5602 5600 5596 5589 5584 5580 5575 5571 5570 5568 5566 5564 5562 5561 5561 5561 5563 5564 5567 5571 5576 5580 5585 5591 5598 5604 5612 5620 5629 5637 5647 5655 5664 5672 5680 5688 5695 5702 5708 5714 5719 5725
5628 5623 5616 5611 5607 5604 5599 5592 5591 5585 5578 5573 5569 5565 5561 5559 5558 5556 5554 5552 5551 5551 5551 5552 5553 5557 5560 5564 5568 5573 5578 5585 5592 5600 5608 5616 5625 5634 5643 5651 5661 5669 5677 5684 5691 5697 5704 5710 5714
5619 5614 5608 5601 5596 5592 5589 5583 5583 5576 5569 5563 5558 5554 5552 5550 5548 5546 5544 5541 5541 5540 5540 5541 5543 5545 5549 5552 5556 5561 5566 5572 5580 5588 5596 5604 5613 5622 5631 5640 5649 5658 5665 5672 5680 5687 5694 5700 5705
5609 5605 5599 5591 5584 5580 5578 5575 5573 5567 5560 5554 5550 5545 5542 5540 5538 5535 5533 5532 5531 5530 5530 5531 5532 5534 5537 5540 5544 5549 5554 5561 5569 5577 5585 5592 5601 5611 5619 5629 5638 5646 5654 5662 5670 5677 5684 5690 5695
5600 5595 5589 5581 5574 5568 5566 5565 5562 5557 5550 5546 5541 5537 5534 5531 5528 5525 5523 5522 5521 5521 5521 5522 5522 5524 5526 5530 5534 5538 5543 5550 5558 5566 5574 5582 5591 5600 5608 5618 5627 5635 5644 5652 5660 5667 5674 5680 5686
5591 5586 5579 5572 5566 5559 5553 5557 5554 5547 5541 5536 5532 5528 5525 5522 5519 5516 5514 5513 5512 5511 5511 5512 5513 5515 5517 5520 5524 5528 5533 5540 5547 5555 5563 5572 5581 5590 5599 5609 5618 5626 5634 5642 5650 5657 5664 5671 5677
5581 5577 5570 5564 5558 5550 5543 5546 5545 5538 5531 5526 5522 5519 5515 5512 5509 5507 5504 5503 5502 5502 5502 5503 5504 5506 5508 5511 5515 5519 5525 5531 5538 5546 5554 5563 5572 5581 5590 5600 5608 5616 5625 5633 5641 5648 5655 5662 5668